Weather in Ovinishchi

Russia / Tver Oblast     58°20′22″N   37°01′32″E
temp.,
°C
wind,
m/s
gust,
m/s
humid.,
%
clouds,
%
prec.,
mm/h
press.,
hPa
HPBL,
m
27 january, wed
wed2700:000sse71297100 0.4 1004966
03:00−2sse61392100 0.5 1003839
06:00−1sse71394100 0.2 10011042
09:00−1sse61296100 1.3 9991024
12:00−1s71295100 0.9 998929
15:00−1ssw71292100 1.7 10001028
18:00−2sw5119599 0.3 1002661
21:00−4sw399598 0.4 1004247
28 january, thu
thu2800:00−6ssw239720 0.0 100653
03:00−7s129843 0.0 100721
06:00−7sse229888 0.0 100727
09:00−7se229791 0.0 100923
12:00−5ese239785 0.0 1008131
15:00−4e249792 0.1 1007225
18:00−4ene3796100 0.3 1006230
21:00−3e4797100 2.0 1004243
29 january, fri
fri2900:00+1se410100100 1.0 1003362
03:00+1sse511100100 1.5 1002380
06:00+1se51099100 0.2 1001353
09:000se4996100 0.2 1000346
12:000ese4797100 0.1 999309
15:00−1ese4798100 1.0 996459
18:00−2ese4997100 3.1 994548
21:00−3ese4996100 4.7 993485
30 january, sat
sat3000:00−4ese4996100 0.9 991405
03:00−4se3996100 1.4 990302
06:00−5sse489695 0.1 989310
09:00−8se259791 0.2 989117
12:00−4se249698 0.1 989270
15:00−3sse129799 0.8 989177
18:00−5ssw2297100 0.5 99048
21:00−6ssw2597100 0.7 991141
31 january, sun
sun3100:00−5sw3796100 0.2 992249
03:00−10ssw359677 0.2 993101
06:00−9s369768 0.1 993154
09:00−10s359882 0.1 995132
12:00−7s3596100 0.1 995234
15:00−7s2496100 0.1 995253
18:00−8s2497100 0.3 995122
21:00−7sw3796100 0.6 996209